Weather History for KECG - October, 2012

Change the Weather History Date:

Monday, October 22, 2012

  Actual Average Record
Temperature  
Mean Temperature 59 °F 60 °F  
Max Temperature 74 °F 71 °F 86 °F (1947)
Min Temperature 43 °F 50 °F 28 °F (1974)
Degree Days  
Heating Degree Days 6 6  
Month to date heating degree days 42 76  
Since 1 July heating degree days 44 88  
Cooling Degree Days 0 1  
Month to date cooling degree days 82 48  
Year to date cooling degree days 2214 1570  
Growing Degree Days 10 (Base 50)    
Moisture  
Dew Point 45 °F    
Average Humidity 60    
Maximum Humidity 89    
Minimum Humidity 31    
Precipitation  
Precipitation 0.00 in 0.09 in 2.73 in (1985)
Month to date precipitation 1.93 2.20  
Year to date precipitation 40.06 40.09  
Snow  
Snow 0.00 in - 0.00 in (2002)
Month to date snowfall 0.0  
Since 1 July snowfall 0.0  
Snow Depth 0.00 in    
Sea Level Pressure  
Sea Level Pressure 30.17 in    
Wind  
Wind Speed 3 mph (North)    
Max Wind Speed 10 mph    
Max Gust Speed 14 mph    
Visibility 10 miles    
Events      
T = Trace of Precipitation, MM = Missing Value Source: NWS Daily Summary

Daily Weather History Graph

Daily Weather History Graph

Search for Another Location

Airport or City:

Trip Planner

Search our weather history database for the weather conditions in past years. The results will help you decide how hot, cold, wet, or windy it might be!

Date:

Astronomy

Oct. 22, 2012 Rise Set
Actual Time 7:18 AM EDT 6:19 PM EDT
Civil Twilight 6:52 AM EDT 6:45 PM EDT
Nautical Twilight 6:22 AM EDT 7:15 PM EDT
Astronomical Twilight 5:52 AM EDT 7:45 PM EDT
Moon 2:14 PM EDT (10/22) 12:15 AM EDT (10/22)
Length of Visible Light 11h 52m
Length of Day
11h 00m
First Quarter, 56% of the Moon is Illuminated
Oct 22
First Quarter
Oct 29
Full
Nov 6
Last Quarter
Nov 13
New
Nov 20
First Quarter

Hourly Weather History & Observations

Time (EDT) Temp. Dew Point Humidity Pressure Visibility Wind Dir Wind Speed Gust Speed Precip Events Conditions
12:54 AM 48.0 °F 43.0 °F 83% 30.14 in 10.0 mi SW 3.5 mph - N/A   Clear
1:54 AM 46.0 °F 42.1 °F 86% 30.14 in 10.0 mi Calm Calm - N/A   Clear
2:54 AM 46.0 °F 42.1 °F 86% 30.15 in 10.0 mi Calm Calm - N/A   Clear
3:54 AM 51.1 °F 43.0 °F 74% 30.15 in 10.0 mi Calm Calm - N/A   Clear
4:54 AM 48.9 °F 42.1 °F 77% 30.16 in 10.0 mi Calm Calm - N/A   Clear
5:54 AM 48.9 °F 42.1 °F 77% 30.17 in 10.0 mi Calm Calm - N/A   Clear
6:54 AM 48.9 °F 42.1 °F 77% 30.19 in 10.0 mi Calm Calm - N/A   Clear
7:54 AM 46.0 °F 42.1 °F 86% 30.20 in 10.0 mi Calm Calm - N/A   Clear
8:54 AM 55.0 °F 46.9 °F 74% 30.22 in 10.0 mi West 3.5 mph - N/A   Clear
9:54 AM 64.0 °F 48.9 °F 58% 30.22 in 10.0 mi Variable 3.5 mph - N/A   Clear
10:54 AM 66.9 °F 45.0 °F 45% 30.22 in 10.0 mi North 5.8 mph - N/A   Clear
11:54 AM 70.0 °F 41.0 °F 35% 30.22 in 10.0 mi NNW 9.2 mph - N/A   Clear
12:54 PM 72.0 °F 41.0 °F 33% 30.19 in 10.0 mi North 5.8 mph - N/A   Clear
1:54 PM 73.0 °F 42.1 °F 33% 30.17 in 10.0 mi North 9.2 mph - N/A   Clear
2:54 PM 73.0 °F 43.0 °F 34% 30.15 in 10.0 mi NNE 5.8 mph - N/A   Clear
3:54 PM 73.9 °F 42.1 °F 32% 30.15 in 10.0 mi NNE 4.6 mph - N/A   Clear
4:54 PM 73.0 °F 41.0 °F 31% 30.14 in 10.0 mi North 4.6 mph - N/A   Clear
5:54 PM 66.9 °F 48.9 °F 52% 30.15 in 10.0 mi ESE 8.1 mph - N/A   Clear
6:54 PM 62.1 °F 48.9 °F 62% 30.16 in 10.0 mi SE 3.5 mph - N/A   Clear
7:54 PM 54.0 °F 48.0 °F 80% 30.17 in 10.0 mi Calm Calm - N/A   Clear
8:54 PM 55.0 °F 48.9 °F 80% 30.17 in 10.0 mi Calm Calm - N/A   Clear
9:54 PM 55.0 °F 48.9 °F 80% 30.18 in 10.0 mi Calm Calm - N/A   Clear
10:54 PM 55.0 °F 48.9 °F 80% 30.18 in 10.0 mi Calm Calm - N/A   Clear
11:54 PM 52.0 °F 48.0 °F 86% 30.18 in 10.0 mi SW 3.5 mph - N/A   Clear